Custer, SD

4:09 AM MDT on April 26, 2017 (GMT -0600)
Custer County

Weather History for KCUT - December, 2013

Change the Weather History Date:

Tuesday, December 24, 2013

  Actual Average Record
Temperature  
Mean Temperature 32 °F 23 °F  
Max Temperature 42 °F 34 °F 57 °F (1999)
Min Temperature 22 °F 13 °F -26 °F (1944)
Degree Days  
Heating Degree Days 33 42  
Month to date heating degree days 1126 997  
Since 1 July heating degree days 3238 3178  
Cooling Degree Days 0 0  
Month to date cooling degree days 0 0  
Year to date cooling degree days 187 177  
Moisture  
Dew Point 20 °F    
Average Humidity 60    
Maximum Humidity 81    
Minimum Humidity 38    
Precipitation  
Precipitation T in 0.01 in 0.90 in (1948)
Month to date precipitation 0.89 0.29  
Year to date precipitation 22.31 18.86  
Sea Level Pressure  
Sea Level Pressure 30.02 in    
Wind  
Wind Speed 8 mph (NW)    
Max Wind Speed 26 mph    
Max Gust Speed 38 mph    
Visibility 10 miles    
Events Snow    
T = Trace of Precipitation, MM = Missing Value Source: NWS Daily Summary

Daily Weather History Graph

Daily Weather History Graph

Search for Another Location

Airport or City:

Trip Planner

Search our weather history database for the weather conditions in past years. The results will help you decide how hot, cold, wet, or windy it might be!

Date:

Astronomy

Dec. 24, 2013 Rise Set
Actual Time 7:26 AM MST 4:22 PM MST
Civil Twilight 6:53 AM MST 4:55 PM MST
Nautical Twilight 6:17 AM MST 5:31 PM MST
Astronomical Twilight 5:42 AM MST 6:06 PM MST
Moon 11:46 PM MST (12/24) 11:09 AM MST (12/24)
Length of Visible Light 10h 01m
Length of Day
8h 55m
Waning Gibbous, 58% of the Moon is Illuminated
Dec 24
Waning Gibbous
Dec 25
Last Quarter
Jan 1
New
Jan 7
First Quarter
Jan 15
Full

Hourly Weather History & Observations

Time (MST) Temp. Windchill Dew Point Humidity Pressure Visibility Wind Dir Wind Speed Gust Speed Precip Events Conditions
12:53 AM 37.9 °F 33.5 °F 23.0 °F 55% 29.90 in 10.0 mi WSW 5.8 mph - N/A   Partly Cloudy
1:53 AM 34.0 °F 28.0 °F 24.1 °F 67% 29.92 in 10.0 mi West 6.9 mph - N/A   Clear
2:53 AM 34.0 °F 28.8 °F 24.1 °F 67% 29.90 in 10.0 mi West 5.8 mph - N/A   Clear
3:53 AM 33.1 °F 23.0 °F 25.0 °F 72% 29.86 in 10.0 mi West 15.0 mph 19.6 mph N/A   Clear
4:53 AM 33.1 °F 25.5 °F 25.0 °F 72% 29.83 in 10.0 mi West 9.2 mph 24.2 mph N/A   Clear
5:53 AM 34.0 °F 28.0 °F 26.1 °F 73% 29.83 in 10.0 mi WNW 6.9 mph 21.9 mph N/A   Clear
6:53 AM 34.0 °F 28.0 °F 24.1 °F 67% 29.91 in 10.0 mi West 6.9 mph - N/A   Partly Cloudy
7:53 AM 34.0 °F 28.8 °F 24.1 °F 67% 29.91 in 10.0 mi North 5.8 mph - N/A   Scattered Clouds
8:53 AM 35.1 °F 31.0 °F 24.1 °F 64% 29.93 in 10.0 mi WNW 4.6 mph - N/A   Overcast
9:24 AM 37.4 °F 34.9 °F 24.8 °F 60% 29.92 in 10.0 mi WNW 3.5 mph - N/A   Overcast
9:34 AM 37.4 °F - 24.8 °F 60% 29.92 in 10.0 mi Calm Calm - N/A   Overcast
9:53 AM 39.9 °F 37.8 °F 24.1 °F 53% 29.93 in 10.0 mi NE 3.5 mph - N/A   Overcast
10:30 AM 39.2 °F 35.9 °F 24.8 °F 56% 29.96 in 10.0 mi Variable 4.6 mph - N/A   Overcast
10:53 AM 37.9 °F 34.4 °F 23.0 °F 55% 29.97 in 10.0 mi North 4.6 mph - N/A   Overcast
11:27 AM 39.2 °F 31.2 °F 21.2 °F 49% 29.98 in 10.0 mi North 13.8 mph 25.3 mph N/A   Overcast
11:53 AM 39.9 °F 33.4 °F 23.0 °F 51% 29.98 in 9.0 mi North 10.4 mph 20.7 mph 0.00 in   Overcast
12:20 PM 39.2 °F 35.0 °F 24.8 °F 56% 29.99 in 2.5 mi Variable 5.8 mph 16.1 mph 0.00 in   Unknown
12:28 PM 37.4 °F 32.8 °F 24.8 °F 60% 29.99 in 5.0 mi North 5.8 mph - 0.00 in Snow Light Snow
12:35 PM 35.6 °F 28.6 °F 23.0 °F 60% 29.99 in 9.0 mi NNW 9.2 mph - 0.00 in   Overcast
12:53 PM 36.0 °F 26.7 °F 19.9 °F 52% 30.01 in 10.0 mi North 15.0 mph 24.2 mph 0.00 in   Overcast
1:53 PM 35.1 °F 26.9 °F 12.9 °F 40% 30.06 in 10.0 mi NNW 11.5 mph 17.3 mph N/A   Partly Cloudy
2:53 PM 36.0 °F 29.0 °F 12.0 °F 37% 30.09 in 10.0 mi NNW 9.2 mph 21.9 mph N/A   Clear
3:53 PM 33.1 °F 30.0 °F 10.9 °F 40% 30.14 in 10.0 mi Variable 3.5 mph - N/A   Clear
4:53 PM 26.1 °F 18.4 °F 10.0 °F 51% 30.19 in 10.0 mi West 6.9 mph - N/A   Clear
5:53 PM 25.0 °F 17.1 °F 15.1 °F 66% 30.21 in 10.0 mi West 6.9 mph - N/A   Clear
6:53 PM 24.1 °F - 15.1 °F 69% 30.23 in 10.0 mi Calm Calm - N/A   Clear
7:53 PM 24.1 °F 13.1 °F 18.0 °F 77% 30.24 in 10.0 mi West 11.5 mph 19.6 mph N/A   Clear
8:53 PM 24.1 °F 12.5 °F 19.9 °F 84% 30.21 in 10.0 mi West 12.7 mph 19.6 mph N/A   Partly Cloudy
9:53 PM 24.1 °F 12.5 °F 16.0 °F 71% 30.19 in 10.0 mi West 12.7 mph 19.6 mph N/A   Clear
10:53 PM 24.1 °F 12.0 °F 14.0 °F 65% 30.19 in 10.0 mi West 13.8 mph - N/A   Partly Cloudy
11:53 PM 26.1 °F 16.2 °F 12.9 °F 58% 30.18 in 10.0 mi WNW 10.4 mph 24.2 mph N/A   Clear